Date String (YYYY-MM-DD hh:mm:ss) UTC,Instrument flags,absolute air pressure of the measurement (hPa),sample flow rate (lpm),inlet stack bypass flow (lpm),air temperature of the measurement (°C),ambient temperature measured by the external sensor (°C),aerosol sample conditioner tube jacket temperature (°C),OPC LED temperature (°C),internal box temperature (°C),relative humidity of the measurement (%),span deviation,mass concentration of particles derived from Lorenz-Mie calculation of OPC scattering (μg/m³),mass concentration of particles derived from Lorenz-Mie calculation of OPC scattering (μg/m³),mass concentration of particles derived from Lorenz-Mie calculation of OPC scattering (μg/m³)
DateTimeUTC,F1_M11,P_M11,Q1_M11,Q2_M11,T1_M11,T2_M11,T3_M11,T4_M11,T5_M11,U1_M11,ZSPAN_M11,X0_M11,X2_M11,X1_M11
2023-10-15 06:00:00,SystemResetWarning,0838.5,4.99,000.00,026.5,024.9,000.0,035.0,028.2,14.5,0001.4,0009.24,0005.14,0004.74
2023-10-15 06:01:00,SystemResetWarning,0838.6,5.01,000.00,026.5,024.8,000.0,035.0,028.1,14.5,0002.4,0009.11,0005.10,0004.73
2023-10-15 06:02:00,SystemResetWarning,0838.5,5.00,000.00,026.5,024.8,000.0,035.0,028.1,14.5,0003.1,0008.52,0005.07,0004.71
2023-10-15 06:03:00,SystemResetWarning,0838.5,5.00,000.00,026.5,024.8,000.0,035.0,028.1,14.5,0003.1,0007.94,0005.04,0004.71
2023-10-15 06:04:00,SystemResetWarning,0838.6,5.00,000.00,026.5,024.9,000.0,035.0,028.1,14.5,0003.0,0007.90,0005.01,0004.70
2023-10-15 06:05:00,SystemResetWarning,0838.6,5.00,000.00,026.5,024.8,000.0,035.0,028.1,14.5,0003.1,0007.67,0004.98,0004.69
2023-10-15 06:06:00,SystemResetWarning,0838.6,5.00,000.00,026.5,024.8,000.0,035.0,028.1,14.5,0002.5,0007.71,0005.00,0004.70
2023-10-15 06:07:00,SystemResetWarning,0838.6,5.00,000.00,026.5,024.8,000.0,035.0,028.1,14.5,0002.2,0007.69,0005.01,0004.71
2023-10-15 06:08:00,SystemResetWarning,0838.7,5.00,000.00,026.4,024.8,000.0,035.0,028.1,14.5,0002.2,0007.64,0005.03,0004.73
2023-10-15 06:09:00,SystemResetWarning,0838.6,5.00,000.00,026.4,024.8,000.0,035.0,028.1,14.5,0002.1,0007.66,0005.06,0004.74
2023-10-15 06:10:00,SystemResetWarning,0838.6,4.99,000.00,026.4,024.8,000.0,035.0,028.1,14.5,0001.8,0007.72,0005.07,0004.75
2023-10-15 06:11:00,SystemResetWarning,0838.6,5.00,000.00,026.4,024.8,000.0,034.9,028.1,14.5,0000.9,0007.77,0005.09,0004.75
2023-10-15 06:12:00,SystemResetWarning,0838.5,5.00,000.00,026.4,024.8,000.0,034.9,028.1,14.5,0000.0,0007.75,0005.06,0004.76
2023-10-15 06:13:00,SystemResetWarning,0838.6,5.00,000.00,026.4,024.8,000.0,034.9,028.1,14.5,0000.1,0007.89,0005.10,0004.78
2023-10-15 06:14:00,SystemResetWarning,0838.6,5.00,000.00,026.4,024.8,000.0,034.9,028.1,14.5,0001.2,0008.04,0005.16,0004.79
2023-10-15 06:15:00,SystemResetWarning,0838.6,5.00,000.00,026.4,024.7,000.0,034.9,028.1,14.5,0001.4,0008.20,0005.21,0004.82
2023-10-15 06:16:00,SystemResetWarning,0838.6,5.01,000.00,026.4,024.8,000.0,034.9,028.0,14.5,0001.4,0008.45,0005.26,0004.85
2023-10-15 06:17:00,SystemResetWarning,0838.6,5.01,000.00,026.4,024.7,000.0,034.9,028.0,14.5,0001.3,0008.46,0005.27,0004.86
2023-10-15 06:18:00,SystemResetWarning,0838.6,4.99,000.00,026.4,024.7,000.0,034.9,028.0,14.5,0001.0,0008.61,0005.31,0004.86
2023-10-15 06:19:00,SystemResetWarning,0838.6,4.99,000.00,026.4,024.7,000.0,034.9,028.0,14.5,0001.2,0009.21,0005.36,0004.88
2023-10-15 06:20:00,SystemResetWarning,0838.6,4.99,000.00,026.4,024.7,000.0,034.9,028.0,14.5,0001.2,0009.40,0005.33,0004.89
2023-10-15 06:21:00,SystemResetWarning,0838.5,5.01,000.00,026.4,024.7,000.0,034.9,028.0,14.5,0000.0,0009.50,0005.32,0004.89
2023-10-15 06:22:00,SystemResetWarning,0838.4,5.00,000.00,026.3,024.7,000.0,034.9,028.0,14.5,0001.8,0009.63,0005.35,0004.91
2023-10-15 06:23:00,SystemResetWarning,0838.4,5.01,000.00,026.3,024.7,000.0,034.9,028.0,14.5,0002.3,0009.79,0005.37,0004.92
2023-10-15 06:24:00,SystemResetWarning,0838.4,5.00,000.00,026.3,024.7,000.0,034.9,028.0,14.5,0002.4,0009.95,0005.36,0004.91
2023-10-15 06:25:00,SystemResetWarning,0838.4,5.00,000.00,026.3,024.7,000.0,034.8,027.9,14.5,0002.9,0009.90,0005.33,0004.90
2023-10-15 06:26:00,SystemResetWarning,0838.3,5.00,000.00,026.3,024.7,000.0,034.8,027.9,14.5,0003.0,0009.87,0005.31,0004.90
2023-10-15 06:27:00,SystemResetWarning,0838.3,5.00,000.00,026.3,024.7,000.0,034.8,028.0,14.5,0002.9,0010.12,0005.30,0004.88
2023-10-15 06:28:00,SystemResetWarning,0838.3,5.00,000.00,026.3,024.7,000.0,034.8,028.0,14.5,0001.9,0010.18,0005.30,0004.87
2023-10-15 06:29:00,SystemResetWarning,0838.3,4.99,000.00,026.3,024.7,000.0,034.8,027.9,14.5,0003.1,0010.06,0005.25,0004.85
2023-10-15 06:30:00,SystemResetWarning,0838.3,5.00,000.00,026.3,024.6,000.0,034.8,027.9,14.5,0002.9,0009.75,0005.21,0004.83
2023-10-15 06:31:00,SystemResetWarning,0838.3,5.00,000.00,026.3,024.6,000.0,034.8,027.9,14.5,0002.4,0009.36,0005.20,0004.82
2023-10-15 06:32:00,SystemResetWarning,0838.3,5.00,000.00,026.2,024.6,000.0,034.8,027.9,14.5,0002.4,0009.92,0005.20,0004.82
2023-10-15 06:33:00,SystemResetWarning,0838.3,5.00,000.00,026.2,024.6,000.0,034.8,027.9,14.5,0002.4,0010.11,0005.18,0004.80
2023-10-15 06:34:00,SystemResetWarning,0838.3,5.00,000.00,026.2,024.6,000.0,034.8,027.9,14.5,0002.3,0010.02,0005.17,0004.79
2023-10-15 06:35:00,SystemResetWarning,0838.4,5.01,000.00,026.2,024.5,000.0,034.8,027.9,14.5,0000.4,0010.48,0005.14,0004.78
2023-10-15 06:36:00,SystemResetWarning,0838.4,5.01,000.00,026.2,024.5,000.0,034.8,027.9,14.5,0000.5,0010.79,0005.16,0004.78
2023-10-15 06:37:00,SystemResetWarning,0838.4,5.00,000.00,026.2,024.5,000.0,034.7,027.9,14.6,0000.0,0010.86,0005.20,0004.78
2023-10-15 06:38:00,SystemResetWarning,0838.4,4.99,000.00,026.2,024.5,000.0,034.7,027.9,14.6,0000.0,0010.59,0005.24,0004.80
2023-10-15 06:39:00,SystemResetWarning,0838.3,4.99,000.00,026.2,024.5,000.0,034.7,027.9,14.6,0000.7,0010.56,0005.28,0004.82
2023-10-15 06:40:00,SystemResetWarning,0838.3,5.00,000.00,026.2,024.5,000.0,034.7,027.8,14.6,0000.2,0010.65,0005.32,0004.85
2023-10-15 06:41:00,SystemResetWarning,0838.3,4.99,000.00,026.2,024.5,000.0,034.7,027.8,14.6,0000.4,0010.58,0005.34,0004.88
2023-10-15 06:42:00,SystemResetWarning,0838.3,5.00,000.00,026.1,024.5,000.0,034.7,027.8,14.6,0000.0,0010.58,0005.37,0004.91
2023-10-15 06:43:00,SystemResetWarning,0838.3,5.01,000.00,026.1,024.4,000.0,034.7,027.8,14.6,0000.0,0009.85,0005.37,0004.91
2023-10-15 06:44:00,SystemResetWarning,0838.3,5.01,000.00,026.1,024.4,000.0,034.7,027.8,14.6,0000.0,0009.94,0005.36,0004.92
2023-10-15 06:45:00,SystemResetWarning,0838.4,5.01,000.00,026.1,024.4,000.0,034.7,027.8,14.6,0000.0,0010.43,0005.39,0004.93
2023-10-15 06:46:00,SystemResetWarning,0838.4,5.00,000.00,026.1,024.4,000.0,034.7,027.8,14.6,0000.0,0009.83,0005.43,0004.95
2023-10-15 06:47:00,SystemResetWarning,0838.4,5.00,000.00,026.1,024.4,000.0,034.6,027.7,14.6,0000.0,0009.46,0005.43,0004.97
2023-10-15 06:48:00,SystemResetWarning,0838.4,4.99,000.00,026.1,024.4,000.0,034.6,027.7,14.6,0000.3,0009.51,0005.39,0004.98
2023-10-15 06:49:00,SystemResetWarning,0838.5,4.99,000.00,026.1,024.4,000.0,034.6,027.7,14.6,0000.7,0009.66,0005.37,0004.98
2023-10-15 06:50:00,SystemResetWarning,0838.4,4.99,000.00,026.1,024.4,000.0,034.6,027.7,14.6,0000.9,0009.83,0005.34,0004.98
2023-10-15 06:51:00,SystemResetWarning,0838.3,5.00,000.00,026.1,024.4,000.0,034.6,027.7,14.6,0001.1,0009.81,0005.31,0004.98
2023-10-15 06:52:00,SystemResetWarning,0838.3,5.00,000.00,026.1,024.4,000.0,034.6,027.7,14.6,0001.5,0009.84,0005.32,0004.98
2023-10-15 06:53:00,SystemResetWarning,0838.3,5.00,000.00,026.0,024.4,000.0,034.6,027.7,14.6,0001.5,0009.76,0005.29,0004.96
2023-10-15 06:54:00,SystemResetWarning,0838.3,5.01,000.00,026.0,024.4,000.0,034.6,027.7,14.6,0001.4,0010.05,0005.27,0004.93
2023-10-15 06:55:00,SystemResetWarning,0838.3,5.00,000.00,026.0,024.4,000.0,034.6,027.7,14.6,0001.7,0009.96,0005.29,0004.91
2023-10-15 06:56:00,SystemResetWarning,0838.3,5.00,000.00,026.0,024.4,000.0,034.6,027.7,14.6,0001.5,0009.35,0005.26,0004.90
2023-10-15 06:57:00,SystemResetWarning,0838.3,5.00,000.00,026.0,024.4,000.0,034.6,027.7,14.6,0001.9,0009.10,0005.22,0004.86
2023-10-15 06:58:00,SystemResetWarning,0838.4,5.00,000.00,026.0,024.4,000.0,034.6,027.7,14.5,0001.6,0009.12,0005.21,0004.83
2023-10-15 06:59:00,SystemResetWarning,0838.4,5.00,000.00,026.0,024.4,000.0,034.6,027.6,14.6,0001.7,0009.56,0005.19,0004.79
